GW3763 Weather Reports


Display with metric or nautical units.
time (UTC)temp
F
wind
direction
speed
MPH
gust
MPH
rain 1hr
in
rain 24hr
in
rain mn
in
humidity
%
barometer
mb
20260505083219 0 203 0.0 2.0 0.00 0.00 0.00 1005.4
20260505082715 0 203 1.0 1.0 0.00 0.00 0.00 1005.4
20260505082212 0 197 2.0 3.0 0.00 0.00 0.00 1005.4
20260505081707 0 203 2.0 2.0 0.00 0.00 0.00 1005.5
20260505081206 0 205 0.0 2.0 0.00 0.00 0.00 1005.6
20260505080703 0 205 0.0 2.0 0.00 0.00 0.00 1005.5
20260505080158 0 204 1.0 2.0 0.00 0.00 0.00 1005.4
20260505075654 0 205 0.0 0.0 0.00 0.00 0.00 1005.3
20260505075151 0 205 2.0 2.0 0.00 0.00 0.00 1005.2
20260505074648 0 205 0.0 0.0 0.00 0.00 0.00 1005.3
20260505074145 0 205 0.0 2.0 0.00 0.00 0.00 1005.3
20260505073643 0 205 1.0 2.0 0.00 0.00 0.00 1005.5
20260505073141 0 188 0.0 0.0 0.00 0.00 0.00 1005.1
20260505072636 0 188 0.0 0.0 0.00 0.00 0.00 1005.3
20260505072133 0 201 0.0 2.0 0.00 0.00 0.00 1005.3
20260505071628 0 206 0.0 2.0 0.00 0.00 0.00 1005.5
20260505071126 0 205 2.0 2.0 0.00 0.00 0.00 1005.5
20260505070623 0 207 0.0 1.0 0.00 0.00 0.00 1005.3
20260505070119 0 207 1.0 1.0 0.00 0.00 0.00 1005.4
20260505065616 0 207 2.0 2.0 0.00 0.00 0.00 1005.4
20260505065112 0 211 0.0 0.0 0.00 0.00 0.00 1005.3
20260505064609 0 208 0.0 2.0 0.00 0.00 0.00 1005.5
20260505064108 0 206 0.0 2.0 0.00 0.00 0.00 1005.5
20260505063605 0 206 1.0 1.0 0.00 0.00 0.00 1005.5
20260505063100 0 211 0.0 0.0 0.00 0.00 0.00 1005.5
20260505062557 0 214 1.0 2.0 0.00 0.00 0.00 1005.3
20260505062054 0 208 0.0 3.0 0.00 0.00 0.00 1005.6
20260505061552 0 202 1.0 2.0 0.00 0.00 0.00 1005.6
20260505061050 0 211 0.0 0.0 0.00 0.00 0.00 1005.5
20260505060547 0 210 0.0 1.0 0.00 0.00 0.00 1005.5
20260505060044 0 207 2.0 2.0 0.00 0.00 0.00 1005.5
20260505055539 0 209 0.0 2.0 0.00 0.00 0.00 1005.5
20260505055036 0 207 1.0 2.0 0.00 0.00 0.00 1005.7
20260505054533 0 203 2.0 3.0 0.00 0.00 0.00 1005.7
20260505054031 0 204 1.0 1.0 0.00 0.00 0.00 1005.6
20260505053528 0 204 0.0 0.0 0.00 0.00 0.00 1005.5
20260505053025 0 204 0.0 0.0 0.00 0.00 0.00 1005.8
20260505052522 0 204 0.0 0.0 0.00 0.00 0.00 1005.7
20260505052019 0 204 0.0 1.0 0.00 0.00 0.00 1005.8
20260505051516 0 204 0.0 1.0 0.00 0.00 0.00 1005.6
20260505051014 0 204 2.0 2.0 0.00 0.00 0.00 1005.8
20260505050512 0 204 1.0 1.0 0.00 0.00 0.00 1005.8
20260505041439 0 200 1.0 2.0 0.00 0.00 0.00 1005.5
20260505040937 0 227 0.0 1.0 0.00 0.00 0.00 1005.5
20260505040434 0 208 1.0 1.0 0.00 0.00 0.00 1005.4
20260505035931 0 209 0.0 2.0 0.00 0.00 0.00 1005.6
20260505035426 0 200 0.0 1.0 0.00 0.00 0.00 1005.5
20260505034924 0 209 0.0 2.0 0.00 0.00 0.00 1005.4
20260505034420 0 215 0.0 0.0 0.00 0.00 0.00 1005.4
20260505033917 0 210 0.0 1.0 0.00 0.00 0.00 1005.6
20260505033414 0 178 2.0 3.0 0.00 0.00 0.00 1005.4
20260505032913 0 210 0.0 1.0 0.00 0.00 0.00 1005.5
20260505032409 0 210 0.0 1.0 0.00 0.00 0.00 1005.5
20260505031906 0 211 0.0 1.0 0.00 0.00 0.00 1005.3
20260505031403 0 213 0.0 2.0 0.00 0.00 0.00 1005.6
20260505030859 0 224 0.0 2.0 0.00 0.00 0.00 1005.6
20260505030350 0 215 2.0 2.0 0.00 0.00 0.00 1005.6
20260505025845 0 201 0.0 3.0 0.00 0.00 0.00 1005.7
20260505025343 0 213 1.0 2.0 0.00 0.00 0.00 1005.6
20260505024842 0 207 0.0 2.0 0.00 0.00 0.00 1005.7
20260505024339 0 207 0.0 2.0 0.00 0.00 0.00 1005.8
20260505023835 0 211 0.0 2.0 0.00 0.00 0.00 1005.7
20260505023332 0 214 0.0 0.0 0.00 0.00 0.00 1005.7
20260505022830 0 208 1.0 2.0 0.00 0.00 0.00 1006.0
20260505022327 0 208 1.0 1.0 0.00 0.00 0.00 1005.9
20260505021825 0 205 1.0 2.0 0.00 0.00 0.00 1005.9
20260505021321 0 215 1.0 3.0 0.00 0.00 0.00 1005.7
20260505020817 0 202 2.0 2.0 0.00 0.00 0.00 1005.8
20260505020312 0 200 2.0 2.0 0.00 0.00 0.00 1005.7
20260505015809 0 205 1.0 2.0 0.00 0.00 0.00 1005.8
20260505015306 0 215 3.0 6.0 0.00 0.00 0.00 1005.7
20260505014803 0 216 2.0 3.0 0.00 0.00 0.00 1005.9
20260505014301 0 211 0.0 2.0 0.00 0.00 0.00 1005.7
20260505013757 0 201 0.0 2.0 0.00 0.00 0.00 1005.6
20260505013255 0 207 0.0 3.0 0.00 0.00 0.00 1005.6
20260505012753 0 208 1.0 2.0 0.00 0.00 0.00 1005.8
20260505012250 0 208 1.0 2.0 0.00 0.00 0.00 1005.5
20260505011746 0 220 1.0 3.0 0.00 0.00 0.00 1005.7
20260505011243 0 211 1.0 2.0 0.00 0.00 0.00 1005.6
20260505010738 0 210 2.0 2.0 0.00 0.00 0.00 1005.6
20260505010234 0 199 2.0 6.0 0.00 0.00 0.00 1005.5
20260505005731 0 216 1.0 2.0 0.00 0.00 0.00 1005.5
20260505005228 0 212 1.0 2.0 0.00 0.00 0.00 1005.5
20260505004725 0 201 1.0 2.0 0.00 0.00 0.00 1005.5
20260505004222 0 211 1.0 2.0 0.00 0.00 0.00 1005.2
20260505003719 0 201 0.0 0.0 0.00 0.00 0.00 1005.3
20260505003217 0 210 0.0 2.0 0.00 0.00 0.00 1005.2
20260505002712 0 214 1.0 2.0 0.00 0.00 0.00 1005.0
20260505002210 0 209 1.0 4.0 0.00 0.00 0.00 1004.9
20260505001708 0 214 0.0 3.0 0.00 0.00 0.00 1004.8
20260505001205 0 221 1.0 3.0 0.00 0.00 0.00 1005.1
20260505000702 0 216 1.0 2.0 0.00 0.00 0.00 1004.8
20260505000200 0 224 2.0 3.0 0.00 0.00 0.00 1004.9
20260504235656 0 223 1.0 6.0 0.00 0.00 0.00 1004.8
20260504235152 0 210 2.0 7.0 0.00 0.00 0.00 1005.0
20260504234650 0 210 0.0 0.0 0.00 0.00 0.00 1004.7
20260504234147 0 209 0.0 2.0 0.00 0.00 0.00 1004.7
20260504233643 0 238 2.0 3.0 0.00 0.00 0.00 1004.7
20260504233139 0 220 4.0 6.0 0.00 0.00 0.00 1004.7
20260504232637 0 234 5.0 7.0 0.00 0.00 0.00 1004.6
20260504232134 0 216 3.0 6.0 0.00 0.00 0.00 1004.6
20260504231630 0 212 0.0 4.0 0.00 0.00 0.00 1004.6
20260504231127 0 228 1.0 3.0 0.00 0.00 0.00 1004.6
20260504230623 0 201 2.0 4.0 0.00 0.00 0.00 1004.5
20260504230122 0 243 2.0 3.0 0.00 0.00 0.00 1004.6
20260504225620 0 215 6.0 11.0 0.00 0.00 0.00 1004.5
20260504225115 0 144 4.0 10.0 0.00 0.00 0.00 1004.2
20260504224612 0 210 4.0 11.0 0.00 0.00 0.00 1004.3
20260504224109 0 237 4.0 10.0 0.00 0.00 0.00 1004.2
20260504223606 0 215 2.0 6.0 0.00 0.00 0.00 1004.1
20260504223101 0 175 2.0 7.0 0.00 0.00 0.00 1004.2
20260504222559 0 144 4.0 10.0 0.00 0.00 0.00 1004.1
20260504222056 0 240 1.0 2.0 0.00 0.00 0.00 1004.0
20260504221553 0 198 1.0 9.0 0.00 0.00 0.00 1004.0
20260504221050 0 226 3.0 9.0 0.00 0.00 0.00 1004.2
20260504220546 0 210 2.0 9.0 0.00 0.00 0.00 1004.1
20260504220043 0 221 1.0 9.0 0.00 0.00 0.00 1004.1
20260504215539 0 232 3.0 9.0 0.00 0.00 0.00 1004.3
20260504215037 0 207 2.0 8.0 0.00 0.00 0.00 1004.2
20260504214533 0 218 2.0 7.0 0.00 0.00 0.00 1004.1
20260504214030 0 210 2.0 8.0 0.00 0.00 0.00 1004.2
20260504213526 0 210 4.0 9.0 0.00 0.00 0.00 1004.2
20260504213024 0 229 5.0 9.0 0.00 0.00 0.00 1004.3
20260504212519 0 215 1.0 4.0 0.00 0.00 0.00 1004.3
20260504212017 0 210 2.0 9.0 0.00 0.00 0.00 1004.3
20260504211514 0 212 2.0 9.0 0.00 0.00 0.00 1004.3
20260504211011 0 241 5.0 7.0 0.00 0.00 0.00 1004.5
20260504210508 0 207 2.0 4.0 0.00 0.00 0.00 1004.6
20260504210004 0 216 4.0 11.0 0.00 0.00 0.00 1004.7
20260504205502 0 246 8.0 10.0 0.00 0.00 0.00 1004.6
20260504205000 0 258 9.0 14.0 0.00 0.00 0.00 1004.8
20260504204458 0 237 3.0 10.0 0.00 0.00 0.00 1004.6
20260504203957 0 230 7.0 9.0 0.00 0.00 0.00 1005.0
20260504203454 0 240 7.0 9.0 0.00 0.00 0.00 1004.9
20260504202950 0 227 4.0 13.0 0.00 0.00 0.00 1005.1
20260504202446 0 201 4.0 10.0 0.00 0.00 0.00 1005.0
20260504201943 0 219 4.0 9.0 0.00 0.00 0.00 1005.1
20260504201435 0 167 5.0 9.0 0.00 0.00 0.00 1005.4
20260504200932 0 267 6.0 14.0 0.00 0.00 0.00 1005.4
20260504200429 0 288 10.0 11.0 0.00 0.00 0.00 1005.1
20260504195926 0 274 9.0 14.0 0.00 0.00 0.00 1005.3
20260504195421 0 218 6.0 9.0 0.00 0.00 0.00 1005.3
20260504194918 0 234 4.0 11.0 0.00 0.00 0.00 1005.3
20260504194414 0 228 3.0 14.0 0.00 0.00 0.00 1005.3
20260504193910 0 256 8.0 15.0 0.00 0.00 0.00 1005.5
20260504193408 0 207 3.0 8.0 0.00 0.00 0.00 1005.6
20260504192907 0 283 9.0 13.0 0.00 0.00 0.00 1005.6
20260504192403 0 236 4.0 9.0 0.00 0.00 0.00 1005.5
20260504191902 0 213 4.0 14.0 0.00 0.00 0.00 1005.7
20260504191359 0 207 2.0 15.0 0.00 0.00 0.00 1005.7
20260504190854 0 210 3.0 11.0 0.00 0.00 0.00 1005.9
20260504190351 0 215 4.0 13.0 0.00 0.00 0.00 1005.9
20260504185847 0 272 8.0 14.0 0.00 0.00 0.00 1005.7
20260504185344 0 241 4.0 7.0 0.00 0.00 0.00 1005.7
20260504184840 0 264 8.0 13.0 0.00 0.00 0.00 1006.1
20260504184337 0 310 5.0 10.0 0.00 0.00 0.00 1005.8
20260504183832 0 212 3.0 15.0 0.00 0.00 0.00 1006.0
20260504183330 0 242 6.0 14.0 0.00 0.00 0.00 1005.9
20260504182828 0 215 5.0 10.0 0.00 0.00 0.00 1005.9
20260504182325 0 217 7.0 15.0 0.00 0.00 0.00 1006.1
20260504181822 0 249 11.0 15.0 0.00 0.00 0.00 1006.2
20260504181319 0 245 3.0 10.0 0.00 0.00 0.00 1006.2
20260504180818 0 180 9.0 16.0 0.00 0.00 0.00 1006.2
20260504180316 0 254 9.0 18.0 0.00 0.00 0.00 1006.2
20260504175814 0 212 6.0 15.0 0.00 0.00 0.00 1006.2
20260504175310 0 242 7.0 17.0 0.00 0.00 0.00 1006.3
20260504174809 0 277 14.0 16.0 0.00 0.00 0.00 1006.4
20260504174306 0 213 2.0 11.0 0.00 0.00 0.00 1006.3
20260504173803 0 239 9.0 10.0 0.00 0.00 0.00 1006.4
20260504173259 0 234 5.0 15.0 0.00 0.00 0.00 1006.3
20260504172756 0 215 5.0 10.0 0.00 0.00 0.00 1006.3
20260504172252 0 230 7.0 14.0 0.00 0.00 0.00 1006.4
20260504171748 0 225 8.0 15.0 0.00 0.00 0.00 1006.4
20260504171246 0 212 6.0 9.0 0.00 0.00 0.00 1006.5
20260504170743 0 267 9.0 14.0 0.00 0.00 0.00 1006.4
20260504170240 0 256 8.0 19.0 0.00 0.00 0.00 1006.7
20260504160158 0 212 2.0 10.0 0.00 0.00 0.00 1007.5
20260504151126 0 228 4.0 11.0 0.00 0.00 0.00 1008.1
20260504150624 0 234 3.0 7.0 0.00 0.00 0.00 1007.9
20260504150120 0 216 4.0 9.0 0.00 0.00 0.00 1007.9
20260504141049 0 222 4.0 14.0 0.00 0.00 0.00 1008.1
20260504140545 0 211 4.0 13.0 0.00 0.00 0.00 1008.1
20260504130510 0 208 1.0 4.0 0.00 0.00 0.00 1008.7
20260504110357 0 207 2.0 2.0 0.00 0.00 0.00 1008.7
20260504100314 0 204 1.0 2.0 0.00 0.00 0.00 1008.5